Weather History for Amberley Military, QU

Change the Weather History Date:

Friday, July 12, 2013

  Actual Average (YBBN) Record (YBBN)
Temperature  
Mean Temperature 57 °F -  
Max Temperature 68 °F 70 °F 77 °F (2006)
Min Temperature 46 °F 49 °F 39 °F (2011)
Degree Days  
Heating Degree Days 8    
Growing Degree Days 7 (Base 50)    
Moisture  
Dew Point 50 °F    
Average Humidity 83    
Maximum Humidity 100    
Minimum Humidity 49    
Precipitation  
Precipitation 0.00 in 0.08 in - ()
Sea Level Pressure  
Sea Level Pressure 30.35 in    
Wind  
Wind Speed 3 mph ()    
Max Wind Speed 12 mph    
Max Gust Speed -    
Visibility 5.8 miles    
Events      
Averages and records for this station are not official NWS values.
T = Trace of Precipitation, MM = Missing Value Source: Averaged Metar Reports

Daily Weather History Graph

Daily Weather History Graph

Search for Another Location

Airport:

Trip Planner

Search our weather history database for the weather conditions in past years. The results will help you decide how hot, cold, wet, or windy it might be!

Date:

Astronomy

Jul. 12, 2013 Rise Set
Actual Time 6:39 AM EST 5:10 PM EST
Civil Twilight 6:14 AM EST 5:35 PM EST
Nautical Twilight 5:45 AM EST 6:04 PM EST
Astronomical Twilight 5:16 AM EST 6:32 PM EST
Moon 8:46 AM EST (7/12) 8:42 PM EST (7/12)
Length of Visible Light 11h 21m
Length of Day
10h 30m
Waxing Crescent, 13% of the Moon is Illuminated
Jul 12
Waxing Crescent
Jul 16
First Quarter
Jul 23
Full
Jul 30
Last Quarter
Aug 7
New

Hourly Weather History & Observations

Time (EST) Temp. Windchill Dew Point Humidity Pressure Visibility Wind Dir Wind Speed Gust Speed Precip Events Conditions
12:00 AM 50.0 °F - 48.2 °F 94% 30.42 in 6.2 mi Calm Calm - N/A   Scattered Clouds
12:30 AM 48.2 °F - 48.2 °F 100% 30.42 in 6.2 mi Calm Calm - N/A   Scattered Clouds
1:00 AM 48.2 °F - 48.2 °F 100% 30.42 in 6.2 mi SSW 4.6 mph - N/A   Mostly Cloudy
1:30 AM 50.0 °F - 48.2 °F 94% 30.39 in 6.2 mi Calm Calm - N/A   Scattered Clouds
2:00 AM 48.2 °F - 46.4 °F 93% 30.39 in 6.2 mi SSW 5.8 mph - N/A   Mostly Cloudy
2:30 AM 48.2 °F - 46.4 °F 93% 30.39 in 6.2 mi WNW 3.5 mph - N/A   Scattered Clouds
3:00 AM 46.4 °F - 46.4 °F 100% 30.39 in 6.2 mi Calm Calm - N/A   Scattered Clouds
3:30 AM 48.2 °F - 46.4 °F 93% 30.39 in 6.2 mi NW 4.6 mph - N/A   Scattered Clouds
3:41 AM 46.4 °F 43.5 °F 44.6 °F 93% 30.39 in 3.7 mi NW 5.8 mph - N/A   Scattered Clouds
4:00 AM 46.4 °F 43.5 °F 44.6 °F 93% 30.39 in 6.2 mi NNW 5.8 mph - N/A   Scattered Clouds
4:30 AM 48.2 °F - 46.4 °F 93% 30.39 in 6.2 mi NW 5.8 mph - N/A   Overcast
5:00 AM 48.2 °F - 46.4 °F 93% 30.39 in 6.2 mi NW 2.3 mph - N/A   Unknown
5:30 AM 48.2 °F - 46.4 °F 93% 30.39 in 6.2 mi Calm Calm - N/A   Mostly Cloudy
6:00 AM 48.2 °F - 46.4 °F 93% 30.39 in 6.2 mi Calm Calm - N/A   Mostly Cloudy
6:30 AM 48.2 °F - 46.4 °F 93% 30.39 in 6.2 mi WNW 4.6 mph - N/A   Scattered Clouds
7:00 AM 48.2 °F - 46.4 °F 93% 30.39 in 6.2 mi Calm Calm - N/A   Scattered Clouds
7:30 AM 50.0 °F - 48.2 °F 94% 30.39 in 6.2 mi NW 3.5 mph - N/A   Scattered Clouds
8:00 AM 53.6 °F - 50.0 °F 88% 30.39 in 6.2 mi NW 4.6 mph - N/A   Scattered Clouds
8:30 AM 55.4 °F - 51.8 °F 88% 30.42 in 6.2 mi Calm Calm - N/A   Scattered Clouds
9:00 AM 59.0 °F - 51.8 °F 77% 30.42 in 6.2 mi Calm Calm - N/A   Scattered Clouds
9:30 AM 62.6 °F - 51.8 °F 68% 30.42 in 6.2 mi SW 2.3 mph - N/A   Scattered Clouds
10:00 AM 64.4 °F - 53.6 °F 68% 30.39 in 6.2 mi SE 4.6 mph - N/A   Mostly Cloudy
10:30 AM 64.4 °F - 51.8 °F 64% 30.39 in 6.2 mi SE 5.8 mph - N/A   Mostly Cloudy
11:00 AM 66.2 °F - 50.0 °F 56% 30.39 in 6.2 mi SE 9.2 mph - N/A   Mostly Cloudy
11:30 AM 66.2 °F - 50.0 °F 56% 30.36 in 6.2 mi ESE 6.9 mph - N/A   Scattered Clouds
12:00 PM 68.0 °F - 50.0 °F 52% 30.36 in 6.2 mi East 10.4 mph - N/A   Scattered Clouds
12:30 PM 68.0 °F - 48.2 °F 49% 30.33 in 6.2 mi ESE 6.9 mph - N/A   Mostly Cloudy
1:00 PM 68.0 °F - 51.8 °F 56% 30.33 in 6.2 mi East 6.9 mph - N/A   Mostly Cloudy
1:30 PM 68.0 °F - 50.0 °F 52% 30.30 in 6.2 mi East 6.9 mph - N/A   Scattered Clouds
2:00 PM 68.0 °F - 51.8 °F 56% 30.30 in 6.2 mi ENE 6.9 mph - N/A   Mostly Cloudy
2:30 PM 66.2 °F - 51.8 °F 60% 30.30 in 6.2 mi NNE 8.1 mph - N/A   Mostly Cloudy
3:00 PM 66.2 °F - 51.8 °F 60% 30.30 in 6.2 mi NE 11.5 mph - N/A   Mostly Cloudy
3:30 PM 66.2 °F - 51.8 °F 60% 30.30 in 6.2 mi NE 8.1 mph - N/A   Mostly Cloudy
4:00 PM 66.2 °F - 53.6 °F 64% 30.30 in 6.2 mi NE 6.9 mph - N/A   Mostly Cloudy
4:30 PM 64.4 °F - 53.6 °F 68% 30.30 in 6.2 mi NE 5.8 mph - N/A   Scattered Clouds
5:00 PM 64.4 °F - 55.4 °F 73% 30.30 in 6.2 mi Calm Calm - N/A   Mostly Cloudy
5:30 PM 62.6 °F - 55.4 °F 77% 30.30 in 6.2 mi Calm Calm - N/A   Scattered Clouds
6:00 PM 60.8 °F - 55.4 °F 82% 30.30 in 6.2 mi Calm Calm - N/A   Unknown
6:30 PM 59.0 °F - 53.6 °F 82% 30.30 in 6.2 mi Calm Calm - N/A   Mostly Cloudy
7:00 PM 57.2 °F - 53.6 °F 88% 30.30 in 6.2 mi Calm Calm - N/A   Scattered Clouds
7:30 PM 55.4 °F - 53.6 °F 94% 30.30 in 6.2 mi Calm Calm - N/A   Unknown
8:00 PM 55.4 °F - 51.8 °F 88% 30.33 in 6.2 mi Calm Calm - N/A   Unknown
8:30 PM 53.6 °F - 51.8 °F 94% 30.33 in 6.2 mi Calm Calm - N/A   Unknown
9:04 PM 50.0 °F - 48.2 °F 94% 30.33 in 3.7 mi Calm Calm - N/A   Unknown
9:18 PM 50.0 °F - 50.0 °F 100% 30.33 in 6.2 mi Calm Calm - N/A   Unknown
9:22 PM 50.0 °F - 50.0 °F 100% 30.33 in - Calm Calm - N/A   Unknown
9:30 PM 51.8 °F - 50.0 °F 94% 30.33 in 0.3 mi Calm Calm - N/A   Unknown
10:00 PM 50.0 °F - 50.0 °F 100% 30.33 in 0.3 mi Calm Calm - N/A   Unknown
10:30 PM 50.0 °F - 50.0 °F 100% 30.33 in - Calm Calm - N/A   Unknown
11:00 PM 46.4 °F - 46.4 °F 100% 30.33 in 0.7 mi Calm Calm - N/A   Unknown
11:30 PM 46.4 °F - 44.6 °F 93% 30.33 in 6.2 mi Calm Calm - N/A   Unknown
11:35 PM 46.4 °F - 46.4 °F 100% 30.33 in 6.2 mi SSW 1.2 mph - N/A   Unknown